www.pogodaiklimat.ru

Погода и климат >> Архив погоды >> Франция >> Paris Orly Airport


АРХИВ ПОГОДЫ в Paris Orly Airport

Время (UTC), дата Ветер
(напр.,м/с)
 
Видим.   Явления Облачность Т
(С)
Тd
(С)
f
(%)
Тe
(С)
Тes
(С)
Комфортность P
(гПа)
Po
(гПа)
Тmin
(С)
Tmax
(С)
R
(мм)
S
(см)
16 20.03 ЮЗ 3 45 км 9/9 1140 м
[Sc]
+11.9 +5.5 65 +11 +11 тепло 1011.3 1000.5
17 20.03 ЮЗ 3 35 км 9/9 800 м
[Cu Sc]
+11.7 +5.8 67 +10 +10 тепло 1011.4 1000.6
18 20.03 ЮЗ 3 35 км 9/9 600 м
[Cu Sc]
+11.8 +5.9 67 +11 +11 по сезону 1011.3 1000.5 +9.5 +12.6
19 20.03 ЮЗ 3 60 км 9/9 800 м
[Cu Sc]
+11.5 +6.0 69 +10 +10 тепло 1011.4 1000.6
20 20.03 ЮЗ 3 55 км 9/9 500 м
[]
+11.2 +6.1 71 +9 +9 тепло 1011.3 1000.5
21 20.03 ЮЗ 3 35 км 9/9 700 м
[Cu Sc]
+10.9 +6.0 72 +9 +9 по сезону 1011.3 1000.5
22 20.03 ЮЗ 3 50 км 9/9 630 м
[]
+10.7 +6.3 74 +9 +9 тепло 1011.3 1000.5
23 20.03 ЮЗ 3 35 км 9/9 570 м
[Sc]
+10.6 +6.3 75 +9 +9 тепло 1011.1 1000.3
00 21.03 ЮЗ 3 45 км слабый дождь 10/9 450 м
[Sc]
+10.4 +6.7 78 +9 +9 тепло 1011.1 1000.3
01 21.03 ЮЗ 2 19 км в посл. час дождь 10/9 400 м
[Sc]
+10.1 +7.0 81 +9 +9 тепло 1011.2 1000.3
02 21.03 ЮЗ 3 30 км 10/9 330 м
[Sc]
+10.2 +7.3 82 +8 +8 тепло 1011.1 1000.2
03 21.03 ЮЗ 2 30 км в посл. час дождь 10/9 210 м
[Sc]
+9.7 +8.1 90 +8 +8 тепло 1011.0 1000.1
04 21.03 З 2 30 км 10/9 270 м
[Sc]
+9.4 +7.5 88 +8 +8 тепло 1011.2 1000.3
05 21.03 З 2 35 км 10/4 570 м
[Cu Sc As op]
+9.1 +5.8 80 +8 +8 тепло 1011.4 1000.5
06 21.03 З 2 35 км {дождь} 10/4 300 м
[Cu Sc As op]
+9.0 +6.6 85 +8 +8 тепло 1011.6 1000.7 +8.6 +11.8
08 21.03 СЗ 3 35 км 10/9 660 м
[Cu Sc]
+9.4 +4.0 69 +7 +7 тепло 1012.6 1001.7
07 21.03 З 2 35 км 10/9 600 м
[Cu Sc]
+8.9 +5.6 80 +8 +8 тепло 1012.2 1001.3
09 21.03 СЗ 2 50 км 10/9 630 м
[Cu Sc]
+9.2 +4.0 70 +8 +8 по сезону 1013.2 1002.3
10 21.03 СЗ 2 40 км слабый дождь 9/9 800 м
[]
+9.2 +3.2 66 +8 +9 тепло 1013.7 1002.8
11 21.03 С 2 12 км слабый дождь 10/9 750 м
[Cu Sc]
+7.5 +4.1 79 +6 +6 по сезону 1014.2 1003.2
12 21.03 З 2 50 км в посл. час дождь 10/9 800 м
[Cu Sc]
+9.3 +3.7 68 +8 +8 по сезону 1014.2 1003.3 0.2
14 21.03 З 3 35 км 9/3 1170 м
[Cu hum Ac trans]
+9.9 +0.5 52 +8 +11 тепло 1014.4 1003.5
13 21.03 СЗ 3 25 км 9/4 1000 м
[Cu hum Ac trans]
+9.8 -0.4 49 +8 +11 по сезону 1014.2 1003.3
15 21.03 СЗ 2 25 км 9/3 1350 м
[Cu hum Ac trans]
+10.1 -0.4 48 +10 +11 по сезону 1014.0 1003.1
16 21.03 СЗ 2 25 км 9/3 1260 м
[Cu hum Ac trans Ci sp]
+10.2 +0.5 51 +10 +11 тепло 1013.8 1002.9
17 21.03 З 2 30 км 6/3 1350 м
[Cu hum Ci fib]
+11.1 -0.1 46 +11 +11 тепло 1013.9 1003.0
18 21.03 З 1 30 км 6/1 1500 м
[Cu hum Ci fib]
+7.3 -0.7 57 +7 +7 по сезону 1014.3 1003.3 +7.3 +11.2
20 21.03 штиль 0 19 км 8/1 1500 м
[Sc Ci sp]
+5.7 0.0 67 +5 +5 тепло 1014.9 1003.8
19 21.03 ЮЗ 1 30 км 9/1 1500 м
[Sc Ci sp]
+6.4 +0.1 64 +6 +6 по сезону 1014.9 1003.8
21 21.03 Ю 2 18 км 6/1 1500 м
[Sc Ci sp]
+6.4 +0.9 68 +5 +5 по сезону 1014.6 1003.5
22 21.03 Ю 1 30 км 4/4 1500 м
[Sc Ci sp]
+6.0 +1.5 73 +5 +5 тепло 1014.7 1003.6
23 21.03 ЮЗ 1 30 км 9/9 1500 м
[Sc]
+5.8 +2.3 78 +5 +5 тепло 1014.9 1003.8
00 22.03 Ю 1 30 км 9/9 1500 м
[Sc]
+5.7 +2.2 78 +5 +5 по сезону 1014.6 1003.5
02 22.03 Ю 1 30 км 6/6 1300 м
[Sc]
+5.3 +2.6 83 +4 +4 тепло 1013.2 1002.1
01 22.03 Ю 1 30 км 9/9 1300 м
[Sc]
+5.4 +2.4 81 +4 +4 тепло 1013.7 1002.6
03 22.03 Ю 2 25 км 5/5 210 м
[St]
+4.5 +2.7 88 +2 +2 по сезону 1012.7 1001.6
04 22.03 Ю 2 13 км 9/9 120 м
[St]
+4.5 +3.2 91 +2 +2 тепло 1012.3 1001.2
05 22.03 Ю 2 20 км 9/9 150 м
[St]
+4.5 +2.5 87 +2 +2 по сезону 1012.0 1000.9
06 22.03 Ю 2 25 км 9/9 200 м
[St]
+3.8 +2.0 88 +1 +1 по сезону 1011.7 1000.6 +3.8 +7.2
08 22.03 Ю 2 29 км 8/8 330 м
[St]
+6.0 +2.6 79 +4 +4 тепло 1011.7 1000.7
07 22.03 Ю 2 25 км 8/8 240 м
[St]
+4.7 +2.2 84 +3 +3 по сезону 1011.7 1000.6
09 22.03 Ю 3 25 км 5/3 480 м
[Cu hum Ci fib]
+7.7 +2.8 71 +5 +9 по сезону 1011.5 1000.5
10 22.03 Ю 4 29 км 6/6 750 м
[Cu Sc]
+9.8 +2.9 62 +7 +9 по сезону 1011.0 1000.1
11 22.03 Ю 3 25 км 8/8 960 м
[Cu med, cong Ci fib]
+10.1 +2.0 57 +8 +10 по сезону 1010.6 999.7
12 22.03 Ю 4 30 км 8/6 1200 м
[Cu med, cong Ci fib]
+11.9 +1.5 49 +10 +13 по сезону 1010.0 999.2
13 22.03 Ю 4 30 км 8/6 1380 м
[Cu med, cong Ci fib]
+11.8 +0.5 46 +10 +13 тепло 1009.5 998.7
14 22.03 Ю 3 40 км 8/6 1500 м
[Cu med, cong Ac trans]
+12.0 +0.4 45 +11 +13 тепло 1009.1 998.3
15 22.03 Ю 2 30 км 8/5 1500 м
[Cu med, cong Ac trans]
+13.4 +1.1 43 +13 +15 тепло 1008.4 997.7
16 22.03 ЮВ 3 50 км 8/5 1500 м
[Sc diur, vesp Ac trans]
+11.9 0.0 44 +11 +12 тепло 1008.2 997.4
17 22.03 ЮВ 2 35 км 9/9 1500 м
[Sc]
+11.7 +0.1 45 +11 +11 тепло 1008.2 997.4
18 22.03 Ю 1 35 км 9/9 1000 м
[Sc]
+11.3 +0.4 47 +11 +11 тепло 1008.5 997.7 +3.7 +13.5
19 22.03 СЗ 2 30 км в посл. час дождь 9/9 1500 м
[Sc]
+8.6 +5.5 81 +7 +7 тепло 1009.0 998.1
20 22.03 С 1 35 км 10/10 1500 м
[]
+8.2 +5.1 81 +7 +7 тепло 1009.0 998.1
21 22.03 СВ 1 24 км {дождь} 9/9 400 м
[Sc Ac As]
+8.5 +4.5 76 +9 +9 тепло 1009.1 998.2
22 22.03 ЮВ 1 40 км 9/9 1500 м
[]
+8.6 +2.6 66 +9 +9 тепло 1009.4 998.5
23 22.03 З 1 26 км 9/9 1500 м
[Sc]
+8.4 +2.6 67 +9 +9 тепло 1009.7 998.8
00 23.03 В 2 40 км {дождь} 10/10 1500 м
[]
+8.1 +2.3 67 +7 +7 по сезону 1009.2 998.3
01 23.03 В 2 35 км 9/5 1500 м
[Sc Ac As]
+7.8 +2.0 67 +7 +7 тепло 1009.0 998.1
02 23.03 В 1 30 км 9/0
[Ac trans]
+6.9 +2.4 73 +6 +6 тепло 1008.7 997.7
03 23.03 В 2
{4}
20 км 8/0
[Ac trans]
+6.2 +2.5 77 +4 +4 по сезону 1008.9 997.9
04 23.03 В 2 30 км 9/9
[Sc Ac trans]
+5.8 +2.4 79 +4 +4 тепло 1008.4 997.4
05 23.03 В 1 28 км 9/0
[Ac trans]
+5.7 +2.5 80 +5 +5 тепло 1008.1 997.1
06 23.03 В 2 25 км 8/0
[Ac trans]
+5.5 +2.5 81 +4 +4 по сезону 1008.3 997.3 +5.5 +11.3
07 23.03 В 1 25 км 9/9 2000 м
[Sc]
+6.2 +2.8 79 +5 +5 тепло 1008.6 997.6
08 23.03 В 2 25 км 10/5 2000 м
[Sc Ac trans Ci sp]
+7.3 +3.3 76 +5 +6 по сезону 1008.6 997.7
09 23.03 В 2 25 км 9/6 1000 м
[Sc Ac trans Ci sp]
+9.1 +4.1 71 +8 +9 по сезону 1009.1 998.2
11 23.03 В 3 25 км в посл. час дождь 9/9 570 м
[Cu Sc]
+10.6 +6.3 75 +9 +10 тепло 1009.3 998.5
10 23.03 ЮВ 2 25 км слабый дождь 9/9 1080 м
[Sc]
+10.4 +5.0 69 +9 +10 по сезону 1009.2 998.4
12 23.03 ЮВ 2 25 км {дождь} 10/9 660 м
[Cu Sc]
+12.6 +7.3 70 +12 +13 тепло 1009.3 998.6
13 23.03 ЮВ 1 25 км 10/9 870 м
[Sc]
+12.8 +6.4 65 +13 +14 тепло 1009.5 998.8
14 23.03 В 2 16 км слабый дождь 10/9 960 м
[Cu Sc]
+12.2 +8.3 77 +11 +12 тепло 1009.5 998.7 0.4
15 23.03 В 3 18 км слабый дождь 10/6 750 м
[Cu Sc Ac trans]
+12.1 +8.2 77 +11 +11 тепло 1009.8 999.0 0.6
17 23.03 ЮВ 2 25 км в посл. час дождь 10/6 1000 м
[Cu Sc Ac trans]
+11.1 +7.6 79 +10 +10 тепло 1010.9 1000.1
16 23.03 В 3 20 км в посл. час дождь 10/9 1170 м
[Sc]
+11.3 +7.6 78 +9 +10 тепло 1010.2 999.4
18 23.03 Ю 2 25 км слабый дождь 10/9 600 м
[Cu Sc]
+10.5 +7.9 84 +10 +10 по сезону 1012.4 1001.5 +5.6 +13.1 0.2
19 23.03 Ю 2 3000 м дождь 10/9 180 м
[Frnb]
+9.0 +7.6 91 +7 +7 тепло 1013.7 1002.8 2
20 23.03 ЮЗ 2 3000 м дождь 10/9 360 м
[Frnb]
+8.2 +6.8 91 +7 +7 тепло 1014.9 1003.9 4
21 23.03 штиль 0 6000 м слабый дождь 10/9 300 м
[Frnb]
+8.1 +6.6 90 +7 +7 по сезону 1015.8 1004.8 7
23 23.03 Ю 1 4000 м слабый дождь 10/9 120 м
[Frnb]
+8.1 +7.2 94 +7 +7 тепло 1018.2 1007.2 1
22 23.03 В 2 2700 м дождь 10/9 150 м
[Frnb]
+8.2 +7.1 93 +7 +7 тепло 1017.1 1006.1 2
00 24.03 ЮЗ 1 5000 м {дождь} 10/10 150 м
[]
+7.9 +6.8 93 +8 +8 тепло 1018.6 1007.6 4
01 24.03 Ю 1 6000 м 10/9 870 м
[Cu Sc]
+7.9 +6.8 93 +7 +7 тепло 1019.2 1008.2
02 24.03 штиль 0 10 км 10/10 180 м
[Sc]
+7.7 +6.5 92 +7 +7 тепло 1019.3 1008.3 0.2
03 24.03 штиль 0 4900 м 10/6 1140 м
[Sc Ac trans]
+7.2 +6.1 93 +6 +6 по сезону 1019.2 1008.1 0.2
05 24.03 штиль 0 5000 м дымка 10/6 300 м
[St Ac trans]
+7.6 +6.8 95 +7 +7 тепло 1020.9 1009.8
04 24.03 З 1 5000 м 10/6 300 м
[St Ac trans]
+7.4 +6.7 95 +7 +7 тепло 1019.6 1008.5
06 24.03 штиль 0 1800 м слабый дождь 10/9 200 м
[Cu Sc]
+7.7 +7.1 96 +7 +7 тепло 1020.8 1009.7 +7.0 +10.5 12
07 24.03 СВ 3 2700 м слабый дождь 10/1 120 м
[]
+8.4 +7.6 95 +6 +6 тепло 1021.2 1010.2 1
08 24.03 ЮВ 1 2500 м дождь 10/9 120 м
[Cu Sc Ac As]
+8.4 +7.6 95 +7 +8 тепло 1023.7 1012.6 1
09 24.03 СВ 2 3000 м слабый дождь 10/9 120 м
[Sc]
+9.0 +8.2 95 +8 +8 по сезону 1023.3 1012.3 3
10 24.03 СВ 2 5000 м {дождь} 9/5 150 м
[Sc Ac trans]
+10.8 +9.2 90 +9 +12 тепло 1023.4 1012.4
11 24.03 СВ 3 10 км 9/4 450 м
[Cu Sc Ci fib]
+12.3 +8.8 79 +11 +16 тепло 1023.7 1012.8
12 24.03 СВ 3 13 км {дождь} 9/4 480 м
[Cu Sc Ci sp]
+12.7 +8.4 75 +12 +16 тепло 1023.9 1013.0
13 24.03 СВ 3 9000 м 9/3 570 м
[Cu hum Ci sp]
+13.9 +8.7 71 +13 +18 тепло 1023.5 1012.7
14 24.03 СВ 3 9000 м 9/9 720 м
[]
+12.6 +7.9 73 +11 +12 тепло 1023.9 1013.0
15 24.03 СВ 3 8000 м 9/9 600 м
[Sc]
+11.9 +7.4 74 +10 +11 по сезону 1023.8 1012.9
16 24.03 СВ 3 8000 м 9/9 600 м
[Sc]
+11.7 +6.8 72 +10 +10 тепло 1023.9 1013.0
17 24.03 СВ 3 7000 м 9/9 600 м
[Sc]
+11.4 +6.7 73 +10 +10 тепло 1024.1 1013.2
18 24.03 СВ 3 7000 м 9/6 600 м
[Sc Ci fib]
+11.1 +6.4 73 +10 +10 по сезону 1024.9 1013.9 +7.7 +14.1
19 24.03 СВ 1 12 км 9/0
[]
+9.6 +5.9 78 +9 +9 тепло 1025.3 1014.3
20 24.03 СВ 2 14 км 8/0
[]
+8.8 +5.9 82 +7 +7 тепло 1025.6 1014.5
21 24.03 СВ 2 14 км 6/0
[]
+9.4 +6.3 81 +8 +8 по сезону 1025.6 1014.6
22 24.03 СВ 2 5000 м 9/0
[]
+9.1 +6.5 84 +7 +7 тепло 1025.5 1014.4
23 24.03 СВ 3 5000 м 9/0
[]
+8.9 +6.0 82 +7 +7 тепло 1025.7 1014.6
00 25.03 СВ 2 14 км 9/0
[]
+8.7 +5.6 81 +7 +7 по сезону 1025.2 1014.1
01 25.03 СВ 2 7000 м 9/0
[]
+8.7 +5.1 78 +7 +7 тепло 1025.1 1014.0
02 25.03 СВ 3 8000 м 9/0
[]
+8.2 +4.4 77 +6 +6 тепло 1024.8 1013.7
03 25.03 СВ 4
{7}
14 км 9/0
[Ci sp]
+7.8 +4.0 77 +5 +5 по сезону 1024.1 1013.0
04 25.03 С 2 8000 м 9/0
[]
+7.7 +3.9 77 +6 +6 тепло 1023.7 1012.6
05 25.03 С 2 12 км 8/0
[]
+7.0 +3.6 79 +5 +5 тепло 1023.3 1012.2
06 25.03 СВ 3 12 км 6/0
[]
+6.7 +2.9 77 +4 +4 по сезону 1023.2 1012.1 +6.7 +11.1
08 25.03 СВ 4 14 км 4/0
[]
+8.8 +4.0 72 +6 +8 тепло 1022.5 1011.5
07 25.03 СВ 3 8000 м 6/0
[]
+7.1 +3.2 76 +4 +5 по сезону 1023.0 1011.9
09 25.03 СВ 4 14 км 4/0
[]
+10.3 +3.6 63 +8 +11 по сезону 1022.0 1011.0
10 25.03 СВ 4 7000 м 3/0
[]
+11.9 +3.4 56 +10 +15 тепло 1021.5 1010.6
11 25.03 СВ 4 14 км 3/0
[]
+13.7 +3.7 51 +12 +18 тепло 1020.6 1009.8
12 25.03 СВ 5 14 км 3/0
[]
+14.8 +3.3 46 +14 +19 тепло 1019.7 1008.9
14 25.03 СВ 6 16 км 3/0
[]
+17.7 +1.6 34 +17 +20 тепло 1017.9 1007.2
13 25.03 СВ 5 9000 м 3/0
[]
+16.7 +3.4 41 +16 +20 тепло 1018.5 1007.8
15 25.03 СВ 6 16 км 3/0
[]
+18.2 -0.1 29 +18 +20 тепло 1017.3 1006.7
16 25.03 СВ 5 16 км 3/0
[]
+18.3 -0.1 29 +18 +19 тепло 1016.9 1006.3
17 25.03 В 4 22 км 3/0
[]
+17.3 +0.4 32 +17 +18 тепло 1017.0 1006.3
18 25.03 В 4 30 км 3/0
[]
+15.8 +0.4 35 +15 +15 тепло 1017.4 1006.7 +6.8 +18.6
20 25.03 СВ 3 30 км 1/0
[]
+13.4 +0.1 40 +13 +13 тепло 1018.5 1007.7
19 25.03 СВ 3 20 км 1/0
[]
+14.2 +0.1 38 +13 +13 тепло 1017.8 1007.0
21 25.03 СВ 3 17 км ясно +11.8 +0.2 45 +11 +11 тепло 1018.7 1007.8
22 25.03 СВ 3 20 км ясно +11.0 +0.4 48 +10 +10 тепло 1018.7 1007.8
23 25.03 СВ 2 20 км ясно +9.5 +0.4 53 +8 +8 тепло 1018.7 1007.7
00 26.03 С 2 20 км ясно +9.3 +0.5 54 +8 +8 тепло 1018.6 1007.6
02 26.03 СВ 2 30 км ясно +7.7 -0.1 58 +7 +7 тепло 1018.8 1007.8
01 26.03 С 2 30 км ясно +7.9 -0.1 57 +7 +7 тепло 1018.8 1007.8
03 26.03 СВ 2 30 км ясно +7.5 -0.2 58 +6 +6 по сезону 1019.0 1007.9
04 26.03 СВ 3
{6}
30 км ясно +7.4 -0.6 57 +5 +5 тепло 1018.6 1007.5
05 26.03 СВ 2 30 км ясно +5.9 -0.4 64 +4 +4 тепло 1018.6 1007.5
06 26.03 СВ 2 30 км ясно +6.0 -0.1 65 +4 +5 по сезону 1019.3 1008.2 +5.5 +15.9
08 26.03 В 2 24 км ясно +9.5 +0.9 55 +8 +12 тепло 1019.7 1008.7
07 26.03 СВ 2 30 км ясно +7.7 +0.9 62 +6 +8 по сезону 1019.4 1008.3
09 26.03 В 2 19 км ясно +11.1 +2.6 56 +10 +16 тепло 1020.5 1009.6
10 26.03 В 2 21 км 1/1 120 м
[Sc]
+12.7 +4.4 57 +12 +21 тепло 1020.6 1009.7
11 26.03 Ю 1 25 км н/о +14.5 +5.0 53 +15 +15 тепло 1020.6 1009.8
12 26.03 В 1 30 км 5/0
[]
+15.9 +6.0 52 +17 +26 тепло 1020.3 1009.6
13 26.03 СВ 2 26 км 6/0
[]
+16.4 +5.6 49 +17 +23 тепло 1020.3 1009.6
14 26.03 СВ 2 26 км н/о +17.1 +6.3 49 +18 +18 тепло 1020.1 1009.4
15 26.03 В 2 19 км 4/1 1200 м
[Cu hum Ci fib]
+17.4 +6.3 48 +18 +22 тепло 1019.9 1009.2
16 26.03 В 2 21 км 9/9
[]
+17.0 +6.8 51 +17 +18 тепло 1019.6 1008.9
17 26.03 ЮВ 2 21 км 9/1 1260 м
[Sc Ac trans]
+16.4 +6.5 52 +17 +17 тепло 1019.4 1008.7
18 26.03 В 2 20 км 9/1 1000 м
[Sc Ac trans]
+15.4 +6.4 55 +16 +16 тепло 1019.8 1009.0 +6.0 +17.5
19 26.03 В 2 20 км 9/0
[Ac trans]
+14.3 +6.1 58 +14 +14 тепло 1020.3 1009.5
20 26.03 В 2 20 км 3/0
[Ac trans]
+12.6 +5.3 61 +12 +12 тепло 1021.0 1010.1
21 26.03 В 1 16 км ясно +11.6 +5.7 67 +12 +12 тепло 1021.2 1010.3
22 26.03 С 1 16 км ясно +10.8 +5.1 68 +12 +12 тепло 1020.9 1010.0
23 26.03 СЗ 1 16 км ясно +11.2 +5.3 67 +12 +12 тепло 1021.0 1010.1
00 27.03 штиль 0 16 км ясно +7.8 +4.0 77 +7 +7 по сезону 1021.3 1010.2
01 27.03 С 1 16 км ясно +7.0 +4.1 82 +7 +7 тепло 1021.0 1009.9
02 27.03 С 1 16 км ясно +6.2 +3.5 83 +6 +6 тепло 1020.5 1009.4
03 27.03 С 1 16 км ясно +7.1 +3.9 80 +7 +7 тепло 1020.3 1009.2
04 27.03 С 1 8000 м ясно +5.7 +3.5 86 +6 +6 тепло 1020.3 1009.2
05 27.03 СВ 1 12 км 6/0
[]
+5.9 +2.4 78 +6 +6 тепло 1020.4 1009.3
06 27.03 СВ 2 8000 м 6/0
[]
+6.2 +1.9 74 +5 +5 по сезону 1020.5 1009.4 +5.4 +15.4
07 27.03 СВ 1 16 км 6/0
[]
+8.9 +4.1 72 +9 +11 тепло 1020.7 1009.7
08 27.03 В 1 18 км 8/0
[]
+10.6 +2.9 59 +11 +13 тепло 1020.9 1009.9
09 27.03 В 1 18 км 8/0
[]
+12.4 +3.3 54 +14 +18 тепло 1020.7 1009.8
11 27.03 В 2 12 км 8/0
[]
+15.8 +5.4 50 +16 +23 тепло 1020.3 1009.6
10 27.03 В 1 18 км 8/0
[]
+14.4 +4.4 51 +15 +21 тепло 1020.5 1009.7
12 27.03 В 2 17 км 8/0
[]
+16.9 +4.6 44 +17 +24 тепло 1019.5 1008.8
13 27.03 В 3 17 км 8/0
[]
+18.1 +5.0 42 +18 +24 тепло 1019.1 1008.5
14 27.03 В 3 20 км 8/0
[]
+18.0 +3.8 39 +18 +22 тепло 1018.8 1008.1
15 27.03 В 3 14 км н/о +18.0 +3.8 39 +18 +18 тепло 1018.7 1008.0

 

Местоположение метеостанции Paris Orly Airport (Франция): широта 48.72 долгота 2.38 высота над уровнем моря 90 м.

В архиве по умолчанию представлена погода в Paris Orly Airport за последнюю неделю. Архивные данные за месяц целиком и за предыдущие месяцы, начиная с января 2011 года, Вы можете получить, выбрав интересующий диапазон дат из раскрывающегося списка и нажав кнопку "Ввод!".

Внимание! Время в таблицах - всемирное. Для получения местного времени необходимо прибавить поправку, которая в Paris Orly Airport равна 1 ч.

Смотрите также архив погоды в соседних городах и на ближайших метеорологических станциях:

Погода в Paris (Франция) (12 км)
Погода в Villacoublay (Франция) (14 км)
Погода в Melun (Франция) (25 км)
Погода в Le Bourget (Франция) (28 км)
Погода в Trappes (Франция) (28 км)
Погода в Charles De Gaulle Airport (Франция) (35 км)
Погода в Cormeilles (Франция) (48 км)
Погода в Creil (Франция) (60 км)
Погода в Chartres (Франция) (70 км)
Погода в Beauvais (Франция) (86 км)

Пояснения к столбцам:

Ветер - указаны скорость ветра в м/с - средняя за 10 мин, порывы в срок и между сроками (в фигурных скобках) и направление, откуда дует ветер: С - северный, СВ - северо-восточный, В - восточный, ЮВ - юго-восточный, Ю - южный, ЮЗ - юго-западный, З - западный, СЗ - северо-западный.
Видимость - горизонтальная дальность видимости в метрах или километрах. При видимости от 1 до 10 км при отсутствии осадков обычно наблюдается дымка, при ухудшении видимости до 1 км и менее - туман. В сухую погоду видимость может ухудшаться дымом, пылью или мглою.
Явления - указаны атмосферные явления, наблюдавшиеся в срок или в последний час перед сроком; фигурными скобками обозначены явления, наблюдавшиеся между сроками (за 1-3 часа до срока); квадратными скобками обозначены град или гололедные отложения с указанием их диаметра в мм.
Облачность - указаны через наклонную черту общая и нижняя облачность в баллах и высота нижней границы облаков в метрах; квадратными скобками обозначены формы облаков: Ci - перистые, Cs - перисто-слоистые, Cc - перисто-кучевые, Ac - высококучевые, As - высокослоистые, Sc - слоисто-кучевые, Ns - слоисто-дождевые, Cu - кучевые, Cb - кучево-дождевые. Подробнее классификацию облаков см. в Атласе облаков (PDF).
T - Температура воздуха - температура, измеренная на высоте 2 м над землей.
Td - Температура точки росы - температура, при понижении до которой содержащийся в воздухе водяной пар достигнет насыщения.
f - Относительная влажность воздуха - влажноcть воздуха, измеренная на высоте 2 м над землей.
Te - Эффективная температура - температура, которую ощущает одетый по сезону человек в тени. Характеристика душности погоды. При расчете учитывается влияние влажности воздуха и скорости ветра на теплоощущения человека.
Tes - Эффективная температура на солнце - температура, которую ощущает человек, с поправкой на солнечный нагрев. Характеристика знойности погоды. Зависит от высоты солнца над горизонтом, облачности и скорости ветра. Ночью, в пасмурную погоду, а также при ветре 12 м/с и более поправка равна нулю.
P - Атмосферное давление - приведенное к уровню моря атмосферное давление.
Po - Атмосферное давление - измеренное на уровне метеостанции атмосферное давление.
Tmin - Минимальная температура - минимум температуры воздуха на высоте 2 м над землей.
Tmax - Максимальная температура - максимум температуры воздуха на высоте 2 м над землей.
R - Количество осадков - Количество выпавших осадков, мм. При наведении курсора мыши на число - период времени, за который выпало указанное количество осадков.
S - Снежный покров - Высота снежного покрова, см. При наведении курсора мыши на число - состояние снежного покрова и степень покрытия местности в баллах.